N252GK KRDU-KDAB

Flight info

Callsign N252GK
Flight time 1h 19m
Altitude 43000
Route HOOKZ5 DAWTS MRPIT Q409 ISUZO Q93 GIPPL Q85 LPERD TTHOR3
Aircraft C700/M-SBDGHM1RWXY/LB2

Departure

Time 2026-05-07 02:22
Airport Raleigh-Durham International Airport (KRDU)

Arrival

Time 2026-05-07 03:41
Airport Daytona Beach International Airport (KDAB)
Time Latitude Longitude Altitude Speed Heading
2026-05-07 01:55 35.88164 -78.78201 424 ft 0 kts 276°
2026-05-07 02:13 35.88163 -78.78202 424 ft 0 kts 265°
2026-05-07 02:13 35.88159 -78.78206 426 ft 1 kts 210°
2026-05-07 02:14 35.88154 -78.78202 427 ft 1 kts 139°
2026-05-07 02:14 35.88154 -78.78201 427 ft 0 kts 139°
2026-05-07 02:17 35.88129 -78.78166 423 ft 9 kts 106°
2026-05-07 02:17 35.88112 -78.78086 420 ft 12 kts 128°
2026-05-07 02:17 35.88044 -78.78071 426 ft 7 kts 213°
2026-05-07 02:18 35.88006 -78.78075 422 ft 6 kts 156°
2026-05-07 02:18 35.87989 -78.78058 424 ft 0 kts 134°
2026-05-07 02:18 35.87986 -78.78054 425 ft 4 kts 133°
2026-05-07 02:18 35.87980 -78.78046 425 ft 0 kts 133°
2026-05-07 02:19 35.87975 -78.78039 425 ft 0 kts 133°
2026-05-07 02:21 35.87970 -78.78033 425 ft 6 kts 133°
2026-05-07 02:21 35.87900 -78.77982 420 ft 17 kts 191°
2026-05-07 02:21 35.87743 -78.78160 422 ft 66 kts 224°
2026-05-07 02:22 35.87187 -78.78844 505 ft 152 kts 225°
2026-05-07 02:22 35.86344 -78.79883 1223 ft 188 kts 218°
2026-05-07 02:22 35.85213 -78.80627 2247 ft 182 kts 201°
2026-05-07 02:22 35.84003 -78.81112 3126 ft 184 kts 201°
2026-05-07 02:23 35.82750 -78.81521 4131 ft 190 kts 197°
2026-05-07 02:23 35.81400 -78.81736 5104 ft 197 kts 196°
2026-05-07 02:23 35.80039 -78.82017 6180 ft 202 kts 199°
2026-05-07 02:23 35.78643 -78.82359 7251 ft 206 kts 200°
2026-05-07 02:24 35.77220 -78.82704 8396 ft 213 kts 199°
2026-05-07 02:24 35.75754 -78.83023 9765 ft 213 kts 198°
2026-05-07 02:24 35.74268 -78.83345 10911 ft 218 kts 198°
2026-05-07 02:24 35.72778 -78.83664 12102 ft 229 kts 199°
2026-05-07 02:25 35.71026 -78.84068 12048 ft 275 kts 197°
2026-05-07 02:25 35.69023 -78.84493 12016 ft 309 kts 196°
2026-05-07 02:25 35.66805 -78.84947 12010 ft 336 kts 195°
2026-05-07 02:25 35.64394 -78.85457 12011 ft 366 kts 195°
2026-05-07 02:26 35.61840 -78.86002 12012 ft 376 kts 195°
2026-05-07 02:26 35.59263 -78.86541 12010 ft 375 kts 195°
2026-05-07 02:26 35.56691 -78.87085 12011 ft 375 kts 195°
2026-05-07 02:26 35.54123 -78.87634 12010 ft 375 kts 195°
2026-05-07 02:27 35.51551 -78.88182 12012 ft 376 kts 195°
2026-05-07 02:27 35.48972 -78.88729 12009 ft 376 kts 195°
2026-05-07 02:27 35.46395 -78.89274 12005 ft 376 kts 195°
2026-05-07 02:27 35.43813 -78.89795 12002 ft 377 kts 193°
2026-05-07 02:28 35.41217 -78.90217 11998 ft 377 kts 193°
2026-05-07 02:28 35.38619 -78.90645 11988 ft 376 kts 193°
2026-05-07 02:28 35.36031 -78.91085 11991 ft 375 kts 193°
2026-05-07 02:28 35.33483 -78.91514 11995 ft 374 kts 193°
2026-05-07 02:29 35.30871 -78.91947 11999 ft 374 kts 193°
2026-05-07 02:29 35.28307 -78.92249 11986 ft 379 kts 186°
2026-05-07 02:29 35.25652 -78.92033 11988 ft 386 kts 178°
2026-05-07 02:29 35.22995 -78.91572 11996 ft 386 kts 177°
2026-05-07 02:30 35.20337 -78.91133 11998 ft 386 kts 178°
2026-05-07 02:30 35.17667 -78.90694 11998 ft 387 kts 178°
2026-05-07 02:30 35.15003 -78.90249 11989 ft 386 kts 178°
2026-05-07 02:30 35.12344 -78.89803 11989 ft 386 kts 177°
2026-05-07 02:31 35.09690 -78.89361 11988 ft 385 kts 178°
2026-05-07 02:31 35.07085 -78.88924 13060 ft 366 kts 178°
2026-05-07 02:31 35.04666 -78.88511 15427 ft 337 kts 179°
2026-05-07 02:31 35.02319 -78.88128 16918 ft 349 kts 180°
2026-05-07 02:32 34.99870 -78.87798 18074 ft 355 kts 185°
2026-05-07 02:32 34.97407 -78.87931 19170 ft 355 kts 195°
2026-05-07 02:32 34.94990 -78.88531 20311 ft 355 kts 201°
2026-05-07 02:32 34.92569 -78.89220 21462 ft 361 kts 201°
2026-05-07 02:33 34.90106 -78.89906 22540 ft 366 kts 201°
2026-05-07 02:33 34.87599 -78.90605 23603 ft 372 kts 201°
2026-05-07 02:33 34.85062 -78.91319 24482 ft 377 kts 201°
2026-05-07 02:33 34.82488 -78.92042 25410 ft 382 kts 201°
2026-05-07 02:34 34.79882 -78.92772 26318 ft 387 kts 201°
2026-05-07 02:34 34.77236 -78.93512 27180 ft 393 kts 200°
2026-05-07 02:34 34.74555 -78.94262 28014 ft 398 kts 200°
2026-05-07 02:34 34.71869 -78.95014 28737 ft 405 kts 200°
2026-05-07 02:35 34.69106 -78.95786 29592 ft 410 kts 199°
2026-05-07 02:35 34.66304 -78.96567 30384 ft 415 kts 199°
2026-05-07 02:35 34.63476 -78.97356 31072 ft 420 kts 199°
2026-05-07 02:35 34.60610 -78.98156 31730 ft 425 kts 200°
2026-05-07 02:36 34.57706 -78.98965 32367 ft 430 kts 200°
2026-05-07 02:36 34.54774 -78.99779 32982 ft 434 kts 200°
2026-05-07 02:36 34.51822 -79.00597 33750 ft 434 kts 200°
2026-05-07 02:36 34.48886 -79.01413 34532 ft 432 kts 202°
2026-05-07 02:37 34.45991 -79.02333 35178 ft 426 kts 208°
2026-05-07 02:37 34.43270 -79.03647 35898 ft 415 kts 216°
2026-05-07 02:37 34.40787 -79.05281 36620 ft 402 kts 223°
2026-05-07 02:37 34.38520 -79.07171 37447 ft 390 kts 228°
2026-05-07 02:38 34.36329 -79.09054 38287 ft 383 kts 229°
2026-05-07 02:38 34.34161 -79.10898 38901 ft 379 kts 230°
2026-05-07 02:38 34.32040 -79.12715 39294 ft 378 kts 230°
2026-05-07 02:38 34.29897 -79.14559 39636 ft 378 kts 230°
2026-05-07 02:39 34.27752 -79.16395 39978 ft 378 kts 230°
2026-05-07 02:39 34.25633 -79.18256 40293 ft 372 kts 233°
2026-05-07 02:39 34.23644 -79.20247 40478 ft 372 kts 233°
2026-05-07 02:39 34.21633 -79.22228 40753 ft 374 kts 233°
2026-05-07 02:40 34.19609 -79.24202 41030 ft 374 kts 233°
2026-05-07 02:40 34.17597 -79.26183 41294 ft 373 kts 233°
2026-05-07 02:40 34.15588 -79.28171 41544 ft 373 kts 233°
2026-05-07 02:40 34.13577 -79.30152 41785 ft 374 kts 233°
2026-05-07 02:41 34.11561 -79.32131 42019 ft 374 kts 233°
2026-05-07 02:41 34.09545 -79.34111 42240 ft 374 kts 233°
2026-05-07 02:41 34.07528 -79.36093 42453 ft 374 kts 233°
2026-05-07 02:41 34.05512 -79.38072 42662 ft 374 kts 233°
2026-05-07 02:42 34.03495 -79.40052 42864 ft 374 kts 233°
2026-05-07 02:42 34.01474 -79.42032 42973 ft 375 kts 233°
2026-05-07 02:42 33.97381 -79.46049 43002 ft 384 kts 233°
2026-05-07 02:43 33.93188 -79.50146 43009 ft 392 kts 232°
2026-05-07 02:43 33.88915 -79.54321 43009 ft 399 kts 232°
2026-05-07 02:44 33.84514 -79.58531 43003 ft 408 kts 231°
2026-05-07 02:44 33.79987 -79.62747 43001 ft 415 kts 231°
2026-05-07 02:45 33.75428 -79.67004 42998 ft 420 kts 230°
2026-05-07 02:45 33.70775 -79.71334 42997 ft 425 kts 230°
2026-05-07 02:46 33.66113 -79.75665 42997 ft 422 kts 230°
2026-05-07 02:46 33.61487 -79.79964 43003 ft 419 kts 230°
2026-05-07 02:47 33.56895 -79.84221 42996 ft 416 kts 230°
2026-05-07 02:47 33.52334 -79.88446 42992 ft 414 kts 230°
2026-05-07 02:48 33.47746 -79.92696 42997 ft 420 kts 230°
2026-05-07 02:48 33.43090 -79.96991 43007 ft 424 kts 230°
2026-05-07 02:49 33.38435 -80.01281 43008 ft 421 kts 230°
2026-05-07 02:49 33.33808 -80.05545 43002 ft 418 kts 230°
2026-05-07 02:50 33.29203 -80.09779 42995 ft 416 kts 230°
2026-05-07 02:50 33.24604 -80.14009 42995 ft 420 kts 229°
2026-05-07 02:51 33.19936 -80.18290 43006 ft 424 kts 229°
2026-05-07 02:51 33.15277 -80.22548 42995 ft 418 kts 229°
2026-05-07 02:52 33.10723 -80.26719 42988 ft 413 kts 229°
2026-05-07 02:52 33.06268 -80.30792 42986 ft 415 kts 229°
2026-05-07 02:53 33.01692 -80.34966 43007 ft 419 kts 229°
2026-05-07 02:53 32.97051 -80.39194 43015 ft 421 kts 229°
2026-05-07 02:54 32.92400 -80.43422 43014 ft 420 kts 229°
2026-05-07 02:54 32.87775 -80.47626 43009 ft 418 kts 229°
2026-05-07 02:55 32.83164 -80.51810 43008 ft 416 kts 229°
2026-05-07 02:55 32.78578 -80.55967 43016 ft 413 kts 228°
2026-05-07 02:56 32.73975 -80.60136 43013 ft 419 kts 228°
2026-05-07 02:56 32.69317 -80.64359 43018 ft 423 kts 229°
2026-05-07 02:57 32.64741 -80.68672 43020 ft 423 kts 229°
2026-05-07 02:57 32.60105 -80.72961 43016 ft 421 kts 229°
2026-05-07 02:58 32.55515 -80.77234 43013 ft 419 kts 229°
2026-05-07 02:58 32.50952 -80.81463 42626 ft 412 kts 228°
2026-05-07 02:59 32.48706 -80.83538 42268 ft 406 kts 228°
2026-05-07 02:59 32.46499 -80.85584 41915 ft 400 kts 228°
2026-05-07 02:59 32.44323 -80.87603 41571 ft 395 kts 228°
2026-05-07 02:59 32.42162 -80.89605 41191 ft 394 kts 227°
2026-05-07 03:00 32.39995 -80.91613 40800 ft 397 kts 227°
2026-05-07 03:00 32.37812 -80.93631 40486 ft 400 kts 226°
2026-05-07 03:00 32.35612 -80.95658 40199 ft 401 kts 226°
2026-05-07 03:00 32.33406 -80.97692 39925 ft 403 kts 226°
2026-05-07 03:01 32.31190 -80.99737 39634 ft 405 kts 226°
2026-05-07 03:01 32.28957 -81.01768 39332 ft 408 kts 223°
2026-05-07 03:01 32.26530 -81.03579 39061 ft 416 kts 217°
2026-05-07 03:01 32.23997 -81.05256 38775 ft 419 kts 217°
2026-05-07 03:02 32.21459 -81.06959 38455 ft 421 kts 217°
2026-05-07 03:02 32.18913 -81.08675 38148 ft 421 kts 217°
2026-05-07 03:02 32.16364 -81.10381 37846 ft 422 kts 217°
2026-05-07 03:02 32.13804 -81.12086 37550 ft 422 kts 217°
2026-05-07 03:03 32.11246 -81.13796 37254 ft 423 kts 217°
2026-05-07 03:03 32.08683 -81.15510 36958 ft 424 kts 217°
2026-05-07 03:03 32.06145 -81.17205 36637 ft 425 kts 217°
2026-05-07 03:03 32.03531 -81.18947 36312 ft 426 kts 217°
2026-05-07 03:04 32.00899 -81.20516 36027 ft 436 kts 211°
2026-05-07 03:04 31.98010 -81.21740 35735 ft 447 kts 204°
2026-05-07 03:04 31.94942 -81.22553 35423 ft 458 kts 197°
2026-05-07 03:04 31.91742 -81.22908 35104 ft 466 kts 189°
2026-05-07 03:05 31.88479 -81.22771 34774 ft 474 kts 182°
2026-05-07 03:05 31.85199 -81.22346 34458 ft 474 kts 181°
2026-05-07 03:05 31.81926 -81.21931 34129 ft 473 kts 181°
2026-05-07 03:05 31.78656 -81.21531 33775 ft 472 kts 181°
2026-05-07 03:06 31.75383 -81.21128 33432 ft 475 kts 181°
2026-05-07 03:06 31.72078 -81.20713 33105 ft 479 kts 181°
2026-05-07 03:06 31.68755 -81.20295 32773 ft 483 kts 181°
2026-05-07 03:06 31.65397 -81.19876 32442 ft 486 kts 180°
2026-05-07 03:07 31.62037 -81.19458 32101 ft 486 kts 180°
2026-05-07 03:07 31.58674 -81.19039 31760 ft 486 kts 180°
2026-05-07 03:07 31.56442 -81.18761 31534 ft 487 kts 180°
2026-05-07 03:07 31.53074 -81.18342 31200 ft 487 kts 180°
2026-05-07 03:08 31.49700 -81.17923 30861 ft 488 kts 180°
2026-05-07 03:08 31.46318 -81.17504 30514 ft 488 kts 180°
2026-05-07 03:08 31.42949 -81.17246 30174 ft 483 kts 186°
2026-05-07 03:08 31.39613 -81.17512 29802 ft 477 kts 194°
2026-05-07 03:09 31.36403 -81.18261 29461 ft 465 kts 201°
2026-05-07 03:09 31.33372 -81.19451 29136 ft 454 kts 208°
2026-05-07 03:09 31.30550 -81.21014 28807 ft 446 kts 213°
2026-05-07 03:09 31.27791 -81.22666 28498 ft 445 kts 213°
2026-05-07 03:10 31.25032 -81.24295 28184 ft 444 kts 213°
2026-05-07 03:10 31.22259 -81.25896 27849 ft 445 kts 211°
2026-05-07 03:10 31.19332 -81.27143 27552 ft 451 kts 203°
2026-05-07 03:10 31.16252 -81.27939 27239 ft 456 kts 195°
2026-05-07 03:11 31.13078 -81.28253 26919 ft 460 kts 188°
2026-05-07 03:11 31.09881 -81.28234 26609 ft 459 kts 186°
2026-05-07 03:11 31.06691 -81.28221 26290 ft 457 kts 187°
2026-05-07 03:11 31.03524 -81.28228 25970 ft 455 kts 187°
2026-05-07 03:12 31.00408 -81.28224 25660 ft 453 kts 186°
2026-05-07 03:12 30.97268 -81.28209 25344 ft 450 kts 186°
2026-05-07 03:12 30.94144 -81.28197 25021 ft 448 kts 187°
2026-05-07 03:12 30.91052 -81.28191 24984 ft 442 kts 187°
2026-05-07 03:13 30.87954 -81.28189 24765 ft 448 kts 187°
2026-05-07 03:13 30.84824 -81.28183 24465 ft 449 kts 187°
2026-05-07 03:13 30.81721 -81.28167 24152 ft 444 kts 187°
2026-05-07 03:13 30.78650 -81.28157 23836 ft 439 kts 187°
2026-05-07 03:14 30.75611 -81.28153 23500 ft 435 kts 187°
2026-05-07 03:14 30.72591 -81.28148 23165 ft 432 kts 187°
2026-05-07 03:14 30.66590 -81.28131 22532 ft 430 kts 186°
2026-05-07 03:15 30.63597 -81.28124 22221 ft 429 kts 186°
2026-05-07 03:15 30.60611 -81.28117 21919 ft 429 kts 186°
2026-05-07 03:15 30.57619 -81.27990 21609 ft 430 kts 183°
2026-05-07 03:15 30.54645 -81.27823 21302 ft 427 kts 183°
2026-05-07 03:16 30.51689 -81.27669 20985 ft 423 kts 183°
2026-05-07 03:16 30.48757 -81.27526 20680 ft 420 kts 183°
2026-05-07 03:16 30.45842 -81.27378 20369 ft 418 kts 183°
2026-05-07 03:16 30.42942 -81.27227 20077 ft 416 kts 183°
2026-05-07 03:17 30.40061 -81.27080 19776 ft 414 kts 182°
2026-05-07 03:17 30.37227 -81.26937 19482 ft 412 kts 182°
2026-05-07 03:17 30.34368 -81.26791 19185 ft 411 kts 182°
2026-05-07 03:17 30.31517 -81.26644 18890 ft 409 kts 182°
2026-05-07 03:18 30.28686 -81.26500 18597 ft 407 kts 182°
2026-05-07 03:18 30.25869 -81.26354 18295 ft 405 kts 181°
2026-05-07 03:18 30.23065 -81.26179 17973 ft 402 kts 181°
2026-05-07 03:18 30.20274 -81.25991 17613 ft 401 kts 181°
2026-05-07 03:19 30.17502 -81.25819 17313 ft 397 kts 181°
2026-05-07 03:19 30.14751 -81.25656 17011 ft 394 kts 181°
2026-05-07 03:19 30.12023 -81.25491 16735 ft 391 kts 181°
2026-05-07 03:19 30.09309 -81.25322 16448 ft 390 kts 181°
2026-05-07 03:20 30.06590 -81.25154 16173 ft 392 kts 181°
2026-05-07 03:20 30.03868 -81.24988 15890 ft 392 kts 180°
2026-05-07 03:20 30.01159 -81.24821 15610 ft 389 kts 180°
2026-05-07 03:20 29.98467 -81.24655 15328 ft 386 kts 180°
2026-05-07 03:21 29.95790 -81.24491 15050 ft 384 kts 180°
2026-05-07 03:21 29.93130 -81.24329 14774 ft 382 kts 180°
2026-05-07 03:21 29.90478 -81.24217 14498 ft 380 kts 182°
2026-05-07 03:21 29.87837 -81.24127 14224 ft 379 kts 181°
2026-05-07 03:22 29.85205 -81.24016 13947 ft 378 kts 181°
2026-05-07 03:22 29.82583 -81.23915 13655 ft 376 kts 181°
2026-05-07 03:22 29.79979 -81.23825 13372 ft 373 kts 181°
2026-05-07 03:22 29.77387 -81.23734 13105 ft 371 kts 181°
2026-05-07 03:23 29.74818 -81.23639 12834 ft 369 kts 181°
2026-05-07 03:23 29.72256 -81.23544 12568 ft 368 kts 181°
2026-05-07 03:23 29.69705 -81.23452 12302 ft 366 kts 181°
2026-05-07 03:23 29.67165 -81.23250 12031 ft 368 kts 173°
2026-05-07 03:24 29.64643 -81.22479 11989 ft 383 kts 162°
2026-05-07 03:24 29.62211 -81.21344 11987 ft 369 kts 160°
2026-05-07 03:24 29.59896 -81.20252 11958 ft 349 kts 160°
2026-05-07 03:24 29.57695 -81.19228 11590 ft 326 kts 160°
2026-05-07 03:25 29.55687 -81.18293 11217 ft 303 kts 161°
2026-05-07 03:25 29.53782 -81.17407 10854 ft 288 kts 161°
2026-05-07 03:25 29.51986 -81.16574 10503 ft 276 kts 161°
2026-05-07 03:25 29.50169 -81.16064 10145 ft 264 kts 175°
2026-05-07 03:26 29.48384 -81.15729 9803 ft 257 kts 170°
2026-05-07 03:26 29.46646 -81.15290 9471 ft 255 kts 170°
2026-05-07 03:26 29.44919 -81.14867 9149 ft 253 kts 170°
2026-05-07 03:26 29.43203 -81.14447 8828 ft 252 kts 170°
2026-05-07 03:27 29.41487 -81.14025 8509 ft 251 kts 169°
2026-05-07 03:27 29.39786 -81.13603 8196 ft 249 kts 169°
2026-05-07 03:27 29.38104 -81.13187 7868 ft 245 kts 169°
2026-05-07 03:27 29.36446 -81.12780 7558 ft 242 kts 169°
2026-05-07 03:28 29.34786 -81.12598 7241 ft 238 kts 184°
2026-05-07 03:28 29.33177 -81.12947 6939 ft 235 kts 199°
2026-05-07 03:28 29.31722 -81.13779 6633 ft 233 kts 214°
2026-05-07 03:28 29.30526 -81.15026 6322 ft 234 kts 229°
2026-05-07 03:29 29.29674 -81.16590 6072 ft 231 kts 245°
2026-05-07 03:29 29.29223 -81.18338 5827 ft 228 kts 258°
2026-05-07 03:29 29.28965 -81.20087 5586 ft 224 kts 259°
2026-05-07 03:29 29.28689 -81.21836 5342 ft 222 kts 258°
2026-05-07 03:30 29.28416 -81.23571 5106 ft 221 kts 258°
2026-05-07 03:30 29.28147 -81.25305 4867 ft 221 kts 258°
2026-05-07 03:30 29.27879 -81.27032 4622 ft 220 kts 258°
2026-05-07 03:30 29.27612 -81.28749 4372 ft 219 kts 258°
2026-05-07 03:31 29.27343 -81.30470 4128 ft 220 kts 258°
2026-05-07 03:31 29.27074 -81.32186 3984 ft 216 kts 258°
2026-05-07 03:31 29.26815 -81.33850 3980 ft 209 kts 258°
2026-05-07 03:31 29.26565 -81.35454 3985 ft 201 kts 257°
2026-05-07 03:32 29.26257 -81.36981 3988 ft 194 kts 247°
2026-05-07 03:32 29.25583 -81.38296 3989 ft 193 kts 230°
2026-05-07 03:32 29.24578 -81.39322 3992 ft 196 kts 212°
2026-05-07 03:32 29.23328 -81.39940 3994 ft 198 kts 194°
2026-05-07 03:33 29.21958 -81.40069 3999 ft 199 kts 176°
2026-05-07 03:33 29.20619 -81.39691 3999 ft 199 kts 159°
2026-05-07 03:33 29.19338 -81.39060 3887 ft 204 kts 158°
2026-05-07 03:33 29.18047 -81.38341 3657 ft 207 kts 154°
2026-05-07 03:34 29.16785 -81.37537 3423 ft 208 kts 150°
2026-05-07 03:34 29.15562 -81.36655 3182 ft 208 kts 148°
2026-05-07 03:34 29.14378 -81.35695 2938 ft 209 kts 144°
2026-05-07 03:34 29.13237 -81.34659 2696 ft 209 kts 141°
2026-05-07 03:35 29.12173 -81.33579 2445 ft 201 kts 138°
2026-05-07 03:35 29.11191 -81.32473 2190 ft 195 kts 135°
2026-05-07 03:35 29.10292 -81.31352 2009 ft 187 kts 133°
2026-05-07 03:35 29.09548 -81.30186 1992 ft 177 kts 118°
2026-05-07 03:36 29.09223 -81.28853 1996 ft 174 kts 97°
2026-05-07 03:36 29.09325 -81.27487 2010 ft 180 kts 78°
2026-05-07 03:36 29.09824 -81.26157 2017 ft 185 kts 68°
2026-05-07 03:36 29.10376 -81.24791 2004 ft 188 kts 69°
2026-05-07 03:37 29.10929 -81.23421 1768 ft 194 kts 68°
2026-05-07 03:37 29.11495 -81.22034 1611 ft 188 kts 69°
2026-05-07 03:37 29.12030 -81.20719 1596 ft 177 kts 70°
2026-05-07 03:37 29.12531 -81.19457 1594 ft 171 kts 69°
2026-05-07 03:38 29.13018 -81.18282 1614 ft 154 kts 70°
2026-05-07 03:38 29.13444 -81.17201 1585 ft 146 kts 69°
2026-05-07 03:38 29.13876 -81.16152 1590 ft 148 kts 70°
2026-05-07 03:38 29.14290 -81.15131 1494 ft 139 kts 71°
2026-05-07 03:39 29.14691 -81.14118 1258 ft 138 kts 70°
2026-05-07 03:39 29.15098 -81.13138 1070 ft 135 kts 72°
2026-05-07 03:39 29.15476 -81.12166 906 ft 133 kts 69°
2026-05-07 03:39 29.15876 -81.11200 751 ft 135 kts 67°
2026-05-07 03:40 29.16269 -81.10237 575 ft 134 kts 67°
2026-05-07 03:40 29.16655 -81.09258 404 ft 136 kts 66°
2026-05-07 03:40 29.17057 -81.08275 218 ft 138 kts 64°
2026-05-07 03:40 29.17448 -81.07312 45 ft 122 kts 63°
2026-05-07 03:41 29.17744 -81.06575 34 ft 72 kts 65°
2026-05-07 03:41 29.17866 -81.06272 36 ft 24 kts 64°
2026-05-07 03:41 29.17940 -81.06101 38 ft 10 kts 46°
2026-05-07 03:41 29.18031 -81.06119 37 ft 17 kts 335°
2026-05-07 03:42 29.18094 -81.06086 37 ft 13 kts 66°
2026-05-07 03:42 29.18138 -81.05975 37 ft 17 kts 65°
2026-05-07 03:42 29.18193 -81.05838 37 ft 21 kts 65°
2026-05-07 03:42 29.18263 -81.05668 37 ft 25 kts 66°
2026-05-07 03:43 29.18324 -81.05516 37 ft 18 kts 65°
2026-05-07 03:43 29.18387 -81.05442 37 ft 14 kts 352°
2026-05-07 03:43 29.18486 -81.05488 37 ft 17 kts 337°
2026-05-07 03:43 29.18585 -81.05539 37 ft 12 kts 320°
2026-05-07 03:44 29.18580 -81.05631 37 ft 10 kts 238°
2026-05-07 03:44 29.18582 -81.05687 37 ft 2 kts 342°
2026-05-07 03:44 29.18587 -81.05682 37 ft 0 kts 44°